Theta_e
312 311 309 309 310 312 311 309 308 308 307 306 305 306 306 307 307 315 316 317 319 320 319 326 328 336 347 350 350 354 368 369 367 364 366 359 362 357 357 354 354 350 346 344 344
312 313 312 310 309 309 311 310 308 307 307 306 305 306 307 309 318 317 320 317 318 318 332 335 339 345 352 352 354 360 367 366 359 359 363 358 357 356 357 355 354 348 345 343 344
312 311 311 310 311 309 307 309 310 308 307 306 305 306 307 311 324 323 321 319 316 315 335 339 342 347 352 352 355 361 361 360 359 357 357 358 357 353 356 359 352 350 346 344 343
309 306 307 309 310 308 307 306 306 308 306 306 306 306 308 319 332 328 319 318 313 320 337 337 337 348 351 353 354 363 356 358 358 355 355 357 353 356 356 360 350 347 345 344 343
314 313 311 310 309 307 307 308 307 307 307 306 306 306 316 324 320 327 320 316 313 324 337 336 338 346 350 353 356 362 355 356 357 355 354 353 356 355 359 357 351 347 345 344 343
314 314 312 311 310 310 310 310 308 307 307 306 306 307 319 321 323 328 323 315 318 328 337 333 334 342 346 348 354 353 353 349 351 357 355 355 360 357 359 356 354 349 346 344 343
312 311 311 311 311 312 311 309 308 308 307 307 306 316 320 321 321 326 322 318 320 327 336 332 331 340 341 346 351 351 357 348 351 358 359 356 362 361 356 357 355 350 348 344 344
310 310 311 311 312 312 311 308 308 310 310 307 306 319 321 321 319 324 322 320 321 325 331 330 330 332 337 340 352 355 353 351 350 356 357 359 368 359 355 356 354 350 348 344 344
311 311 312 313 313 311 308 306 311 308 308 306 317 322 324 324 320 324 321 322 325 329 328 327 327 328 332 339 348 352 356 353 351 354 358 360 367 362 354 354 353 351 348 345 344
313 314 313 313 311 307 306 309 317 322 313 317 321 324 321 328 320 323 327 325 328 328 327 326 327 331 332 339 349 349 349 351 353 355 358 362 363 361 357 355 355 351 348 347 344
313 312 311 309 308 307 310 319 323 327 325 326 325 325 323 324 323 325 327 327 327 327 328 328 330 331 332 336 342 343 345 353 352 350 359 362 364 359 359 356 355 351 349 347 346
314 312 311 308 309 307 310 323 319 318 319 325 324 321 322 322 326 326 327 328 325 327 328 329 330 328 329 333 337 340 342 348 349 350 361 362 364 361 357 355 355 352 349 348 345
314 312 310 309 309 310 318 318 316 317 318 319 320 322 322 325 327 325 326 326 325 326 326 328 326 327 329 330 334 337 341 346 350 347 349 353 365 352 358 356 355 354 353 349 345
314 313 311 310 312 319 320 317 318 317 319 320 320 321 320 323 327 326 324 326 326 325 325 326 326 326 330 330 332 337 339 345 350 353 363 354 372 368 361 360 358 355 354 352 344
315 314 314 311 315 319 319 316 318 318 322 320 320 320 320 321 324 325 326 325 326 326 325 326 326 326 328 329 330 337 339 342 340 341 340 343 347 366 361 365 351 353 354 352 350
315 314 314 317 315 317 316 317 319 319 323 321 319 319 319 320 322 324 327 326 325 328 325 327 326 327 327 328 329 335 338 340 341 339 339 345 346 364 362 357 358 354 356 345 350
315 316 314 316 321 320 319 319 322 322 326 322 319 319 318 320 322 324 327 327 328 329 327 325 327 326 328 329 332 335 336 340 344 343 340 335 343 359 350 360 359 357 356 349 349
315 316 317 316 320 320 320 323 328 328 327 323 320 319 318 320 322 323 326 327 327 327 325 327 327 327 330 331 333 334 334 339 343 339 338 336 344 359 348 356 352 350 356 348 349
315 318 319 322 322 320 322 329 328 326 322 321 320 319 320 321 321 323 325 326 325 327 329 326 327 328 329 331 333 334 336 336 337 336 336 350 356 354 352 350 350 352 356 355 357
317 321 324 322 320 321 326 326 327 324 320 319 320 320 322 322 322 323 325 326 327 326 327 328 327 330 331 332 334 335 333 336 337 341 339 354 357 357 355 352 348 348 348 347 346
318 324 323 322 319 323 329 326 324 319 319 321 320 322 324 324 326 327 329 327 326 326 327 327 332 335 332 333 334 333 333 334 334 335 336 354 359 351 353 350 348 345 344 345 344
322 325 322 319 319 325 327 326 315 320 318 321 320 321 324 324 327 327 329 326 322 323 326 327 333 335 330 328 329 331 333 334 336 340 336 353 357 346 347 345 344 341 342 343 343
325 320 318 318 324 330 325 320 320 320 320 320 320 319 321 325 324 325 326 324 321 323 326 327 330 333 329 326 326 327 328 330 332 334 339 346 353 345 346 344 341 339 339 341 341
324 320 321 319 320 323 324 323 322 319 319 320 320 319 318 322 323 323 320 320 320 321 327 326 326 333 330 327 326 327 327 329 330 333 335 349 351 347 348 346 341 338 336 337 338
323 318 319 320 320 320 320 321 320 320 319 320 322 318 318 322 321 321 320 320 320 321 323 323 326 328 329 324 326 326 326 327 329 330 348 348 347 347 346 344 341 338 337 336 334
320 322 317 318 319 318 314 318 318 317 319 319 321 322 320 320 322 322 321 322 324 321 323 322 326 327 324 322 324 325 325 326 326 328 335 339 345 340 339 339 338 336 334 333 332
320 318 321 314 319 319 318 318 317 317 315 318 321 323 324 321 322 322 321 322 323 324 324 324 325 326 326 322 321 324 324 323 324 325 341 347 342 338 337 335 333 331 330 329 328
Wind_Speed
15 15 15 14 14 14 14 15 14 13 14 14 14 13 12 11 11 9 11 10 20 10 11 13 17 20 18 13 14 4 4 3 1 17 10 11 6 4 8 9 2 11 22 25 29
16 16 16 15 15 15 15 15 15 14 14 14 14 13 13 11 12 21 16 15 11 12 16 21 19 18 12 13 7 2 3 6 4 16 17 14 10 4 3 12 6 23 26 30 28
16 16 16 16 16 15 16 16 16 15 14 13 13 12 12 9 11 5 22 25 16 15 20 20 16 15 17 13 8 7 2 4 14 17 19 16 11 4 9 10 18 25 26 24 26
16 16 16 16 16 16 16 16 17 16 14 12 12 11 10 7 2 4 11 22 16 19 21 19 17 15 17 9 10 4 4 8 13 19 16 15 10 8 0 2 14 24 24 21 20
18 18 18 18 16 16 16 16 17 16 14 11 10 8 6 8 10 7 9 16 16 19 22 18 17 15 17 8 9 8 2 12 18 17 16 20 15 12 3 10 10 23 22 21 18
16 17 17 17 17 17 17 17 16 16 15 11 7 5 6 12 4 7 12 16 18 22 20 20 14 17 13 5 9 3 5 13 12 11 15 14 16 17 12 10 7 21 22 21 19
19 18 18 18 18 19 18 18 15 14 13 10 7 5 11 17 3 4 13 18 20 24 18 20 20 17 9 11 9 10 9 16 16 16 15 13 13 13 11 25 16 23 21 20 18
19 19 20 20 21 19 19 15 11 10 8 7 7 7 8 7 15 8 12 16 20 22 22 16 19 14 17 15 15 19 9 9 16 21 14 12 13 15 13 17 19 23 19 19 19
20 21 22 21 21 18 15 11 3 5 2 9 6 10 11 6 12 14 16 18 21 20 19 15 13 12 17 16 12 15 15 17 8 20 22 12 11 2 15 17 21 17 18 19 18
21 21 22 20 17 14 11 4 4 2 1 5 15 9 10 12 13 17 17 18 18 16 14 13 8 13 15 15 15 18 20 16 18 15 14 15 19 18 14 16 19 16 15 19 19
18 17 15 14 13 9 1 4 4 6 13 11 5 13 8 13 16 16 18 16 15 17 15 16 12 16 21 22 22 21 20 13 6 11 22 17 19 19 19 18 17 15 15 18 19
18 15 13 7 4 4 5 6 8 10 10 22 19 13 19 14 14 15 21 15 17 15 18 13 19 19 21 23 23 24 9 10 11 5 9 12 17 5 17 14 8 16 14 16 18
17 11 6 5 6 8 15 10 8 10 10 16 18 17 12 9 14 17 19 19 18 20 21 21 15 22 20 22 22 24 17 14 13 16 12 21 12 10 18 16 6 1 10 10 18
14 10 7 7 9 14 15 4 9 7 7 10 14 12 16 12 16 18 22 19 13 19 20 22 20 21 20 21 22 22 18 16 27 23 11 30 8 24 21 20 15 13 12 13 11
15 10 8 9 14 15 8 10 9 9 5 5 12 7 14 17 9 18 23 19 20 16 16 21 22 20 21 20 21 19 18 22 18 13 13 19 8 9 13 18 17 15 11 13 17
15 12 10 8 10 13 11 10 10 6 3 2 5 7 15 18 21 18 18 20 18 17 19 23 19 19 18 17 21 17 21 9 11 11 13 15 13 7 7 5 19 17 15 13 19
14 14 16 14 13 12 11 8 6 6 15 7 7 9 15 17 19 21 19 19 18 17 19 21 22 21 13 16 17 18 19 11 10 12 11 16 16 8 6 11 6 21 15 27 22
17 17 16 22 13 9 8 9 6 8 12 14 12 9 16 20 23 21 19 18 22 22 14 15 17 22 14 21 20 19 21 11 16 14 13 19 3 9 14 20 6 10 25 18 13
16 16 11 19 16 7 8 4 3 11 8 8 14 8 13 17 16 16 18 18 23 21 20 17 22 20 20 22 23 17 20 19 15 17 15 9 14 17 19 11 9 5 9 11 11
10 18 24 15 7 8 7 1 7 20 10 10 10 3 5 12 9 14 20 9 7 14 3 6 15 19 17 19 14 12 19 16 15 16 14 12 16 13 17 13 9 6 10 12 15
6 6 11 5 8 4 4 8 9 3 9 11 3 9 13 4 18 11 11 10 4 3 12 7 8 14 14 13 12 13 12 17 19 15 13 8 7 14 14 10 7 9 13 13 10
13 12 5 6 8 6 5 11 4 5 3 2 3 7 2 10 5 11 6 3 14 9 12 13 8 6 17 15 17 17 17 16 13 19 12 6 6 11 13 10 9 9 13 14 11
5 4 6 6 2 4 17 8 5 2 3 4 2 4 3 7 2 13 11 15 10 10 6 8 5 6 15 14 16 11 17 16 19 19 14 7 8 12 14 11 10 10 14 15 13
5 3 3 2 1 12 10 7 5 1 1 3 3 4 4 6 5 5 8 2 5 6 8 6 9 7 11 7 16 17 17 12 12 11 10 12 19 17 16 13 13 12 14 15 15
4 6 5 8 9 9 9 4 4 3 2 4 1 9 8 4 6 5 3 4 2 4 4 6 11 10 19 15 20 20 19 7 12 14 15 14 18 17 16 15 13 15 14 17 17
6 6 0 5 2 4 3 8 8 7 8 1 7 6 10 5 3 5 2 5 6 4 6 10 7 9 5 9 15 23 21 13 14 14 13 8 18 20 17 16 14 13 14 15 16
12 2 7 4 4 5 10 8 6 2 5 10 12 8 8 9 7 7 10 6 5 5 6 8 10 6 3 1 5 3 5 2 8 4 21 17 10 19 18 15 13 12 13 14 14
Wind_Direction
339 335 332 331 330 330 326 324 322 319 318 319 320 314 313 311 301 269 244 221 222 244 212 190 197 215 213 225 212 197 274 14 126 136 141 135 122 16 289 151 81 127 147 137 150
334 333 329 329 325 324 324 323 320 317 314 315 317 315 316 314 289 261 235 235 208 222 199 197 196 211 207 207 228 81 289 2 103 133 140 141 142 128 140 139 143 128 132 145 154
330 329 326 326 325 321 319 318 316 313 310 309 312 313 315 323 274 245 209 220 207 209 207 215 200 208 229 182 208 202 41 12 99 121 138 133 130 123 162 150 139 138 143 159 155
333 329 325 324 321 320 317 313 310 307 304 303 306 310 311 293 306 96 166 199 205 194 219 225 219 210 231 196 219 50 231 116 125 133 139 150 143 132 118 236 133 141 149 155 161
326 324 324 322 320 318 313 312 308 304 298 293 298 306 314 231 259 141 169 191 184 190 216 221 218 210 232 150 213 170 306 130 130 153 146 141 153 142 170 291 130 143 157 160 166
323 322 320 320 320 315 313 310 308 303 292 280 276 291 255 255 32 137 167 174 183 190 213 223 224 221 250 211 208 126 192 130 135 158 159 159 134 139 170 215 199 153 165 165 169
325 322 321 320 315 313 311 310 311 303 287 269 235 230 261 243 282 121 178 187 188 192 215 217 225 234 266 232 184 231 209 195 164 166 151 155 149 125 141 171 176 166 168 167 164
325 321 318 317 315 312 311 314 311 308 280 234 202 228 261 300 244 186 180 189 196 200 228 213 236 262 245 277 174 226 237 211 181 158 158 150 158 140 164 167 172 165 169 170 158
321 316 316 315 313 313 310 311 320 11 159 177 195 222 246 157 219 203 181 188 191 206 222 231 232 240 249 250 222 214 214 201 205 155 161 154 130 197 159 170 167 173 174 169 164
321 318 313 311 312 311 306 263 290 10 154 210 264 225 248 216 196 192 190 190 189 199 205 222 208 230 238 224 219 207 233 171 188 158 147 159 157 175 183 173 163 182 178 170 166
325 320 316 314 317 315 207 289 209 203 223 234 205 234 152 213 179 190 190 183 192 206 201 198 211 215 216 222 237 220 215 109 309 304 158 161 159 167 184 180 168 177 185 184 173
325 324 321 324 324 267 237 245 27 334 290 225 245 229 271 173 177 191 184 189 198 200 208 190 224 229 224 229 232 255 247 176 153 69 63 108 145 144 172 181 159 173 194 192 176
329 331 329 290 267 246 222 293 310 296 275 271 223 218 209 182 189 193 192 200 195 206 206 229 213 233 212 233 234 239 244 180 163 114 61 264 157 155 200 181 149 90 274 235 176
329 325 310 292 286 249 238 318 307 317 281 234 187 197 214 219 217 205 195 204 194 217 225 226 236 203 238 229 229 237 232 121 194 178 172 212 148 183 172 165 175 184 246 274 188
323 310 289 261 305 291 344 303 328 283 274 85 178 166 196 204 194 198 184 216 234 209 214 225 233 236 218 220 231 241 231 178 241 179 220 195 216 152 146 173 183 194 202 246 267
318 295 298 267 254 257 304 304 275 234 282 186 157 222 206 198 226 188 183 225 231 245 227 241 223 240 219 226 233 229 255 174 213 244 232 203 230 148 140 175 199 185 189 244 251
312 288 268 282 281 323 315 286 235 270 321 309 258 185 213 201 218 185 184 206 223 227 223 221 239 229 217 214 232 220 237 217 212 221 238 246 209 126 149 68 283 164 172 206 227
307 284 270 261 276 284 279 246 318 327 304 289 312 289 205 215 215 190 176 205 222 235 216 214 219 220 189 219 210 220 229 217 207 224 232 248 240 128 151 141 163 144 144 175 180
304 275 251 247 231 272 252 5 223 225 314 320 289 279 232 224 208 188 195 204 214 229 236 203 230 193 212 213 222 202 232 249 228 221 227 133 104 119 119 112 108 79 39 24 9
310 272 239 207 189 223 57 48 265 285 301 256 257 349 156 254 260 195 204 185 269 340 316 270 225 194 201 210 231 271 217 241 241 256 247 146 162 151 153 135 143 122 71 39 23
266 258 104 233 216 127 108 249 243 79 318 344 69 6 339 275 336 337 338 141 201 7 241 280 283 175 199 205 194 227 249 232 243 240 237 156 95 109 108 121 127 87 72 66 53
282 268 134 264 246 17 186 211 301 61 5 340 93 327 9 4 119 24 34 303 337 286 282 253 173 230 208 208 222 227 223 237 238 248 263 76 81 103 107 107 103 84 80 79 79
271 305 79 246 107 353 262 87 60 88 72 16 163 237 27 13 161 159 149 244 290 268 11 10 152 210 233 206 203 227 242 247 242 256 263 150 141 128 113 107 95 88 82 79 80
280 283 127 213 55 198 224 134 109 155 234 304 115 274 237 189 255 244 212 86 339 4 317 258 263 129 289 210 201 206 233 235 262 272 267 117 146 150 135 128 120 103 96 95 86
262 33 1 359 25 26 11 15 305 106 236 281 307 184 235 266 197 131 109 204 112 1 263 268 269 142 218 295 176 195 215 200 237 269 86 126 144 151 144 136 123 112 105 99 95
327 350 96 43 324 222 113 36 33 59 323 245 229 209 195 265 338 339 130 316 34 9 343 324 317 291 108 357 349 179 208 207 231 258 133 171 126 112 103 117 118 104 96 88 82
348 330 277 131 255 14 37 25 56 23 14 360 352 334 117 40 13 311 325 5 85 326 3 340 355 305 273 133 358 2 133 168 274 326 132 129 136 120 126 121 114 107 99 94 88